Location: Oberkirch
(48.5323°N, 8.0787°E)
Time: 01:40:18
(UTC+00:00)

Cosmos 1943 Rocket - Pass Details

Date: 08 November 2025
Orbit: 812 x 841 km, 71.0° (Epoch: 13 December)

Event Time Altitude Azimuth Distance (km) Brightness Sun altitude
Exits shadow 04:06:29 18° 338° (NNW) 1,901 3.8 -23.1°
Maximum altitude 04:10:36 69° 59° (ENE) 874 2.4 -22.4°
Drops below altitude 10° 04:16:05 10° 144° (SE) 2,398 5.0 -21.5°
Sets 04:18:30 0° 146° (SSE) 3,324 5.8 -21.1°
